Погода в Соляном

Россия / Республика Крым     45°19′40″N   35°24′50″E
темп.,
°C
ветер,
м/с
пор.,
м/с
влажн.,
%
обл.,
%
осадки,
мм/ч
давл.,
гПа
погр.,
м
21 апреля, ср
ср2100:00+10з7128346 0.1 1012502
03:00+8юз478510 0.1 1014145
06:00+8юз358054 0.0 101581
09:00+13юз466264 0.0 1017789
12:00+14ю446155 0.6 1018795
15:00+14зюз346497 1.0 1018836
18:00+13юз237246 0.6 1018483
21:00+10ююз228242 0.8 102020
22 апреля, чт
чт2200:00+9ю118616 0.0 102113
03:00+9ююв22900 0.0 102117
06:00+8зюз119026 0.0 102214
09:00+12с217563 0.0 1023292
12:00+13с226792 0.0 1023837
15:00+14ю4464100 0.1 1023505
18:00+14ююв33655 0.0 1022323
21:00+11зюз33770 0.1 102336
23 апреля, пт
пт2300:00+9зюз33820 0.0 102326
03:00+9ююв34840 0.0 102344
06:00+9ю4786100 0.0 1022123
09:00+13ю796682 0.0 1022367
12:00+14ю81061100 0.0 1022571
15:00+13ю81063100 0.0 1021517
18:00+11ю71175100 0.0 1019412
21:00+11ю71176100 0.0 1019286
24 апреля, сб
сб2400:00+9ююз48844 0.0 1019162
03:00+8зюз33785 0.0 101936
06:00+8зсз347686 0.0 101976
09:00+11сз688233 0.0 1020625
12:00+11с567421 0.0 1020650
15:00+12с575840 0.0 1020536
18:00+12с2351100 0.0 1021327
21:00+9зсз3461100 0.0 102359
25 апреля, вс
вс2500:00+8сз5875100 0.0 1023250
03:00+8ссз477091 0.0 1023294
06:00+6ссв3566100 0.0 1023223
09:00+9ссв5551100 0.0 1023990
12:00+10ссв5548100 0.0 10221012
15:00+9ссв4550100 0.0 1021908
18:00+8с3451100 0.0 1021423
21:00+7сз2353100 0.0 1021112